Weather History for Gadsden, AL

Change the Weather History Date:

Friday, March 22, 2013

  Actual Average Record
Temperature  
Mean Temperature 42 °F -  
Max Temperature 48 °F 63 °F 86 °F (1935)
Min Temperature 35 °F 39 °F 25 °F (1951)
Degree Days  
Heating Degree Days 24    
Moisture  
Dew Point 32 °F    
Average Humidity 66    
Maximum Humidity 87    
Minimum Humidity 50    
Precipitation  
Precipitation 0.11 in - - ()
Sea Level Pressure  
Sea Level Pressure 30.01 in    
Wind  
Wind Speed 4 mph (ENE)    
Max Wind Speed 12 mph    
Max Gust Speed -    
Visibility 10 miles    
Events      
Averages and records for this station are not official NWS values.
T = Trace of Precipitation, MM = Missing Value Source: NWS Daily Summary

Daily Weather History Graph

Daily Weather History Graph

Search for Another Location

Airport:

Trip Planner

Search our weather history database for the weather conditions in past years. The results will help you decide how hot, cold, wet, or windy it might be!

Date:

Astronomy

Mar. 22, 2013 Rise Set
Actual Time 6:44 AM CDT 6:57 PM CDT
Civil Twilight 6:20 AM CDT 7:22 PM CDT
Nautical Twilight 5:50 AM CDT 7:51 PM CDT
Astronomical Twilight 5:21 AM CDT 8:21 PM CDT
Moon 2:35 PM CDT (3/22) 3:33 AM CDT (3/22)
Length of Visible Light 13h 02m
Length of Day
12h 12m
Waxing Gibbous, 77% of the Moon is Illuminated
Mar 22
Waxing Gibbous
Mar 27
Full
Apr 2
Last Quarter
Apr 10
New
Apr 18
First Quarter

Hourly Weather History & Observations

Time (CDT) Temp. Windchill Dew Point Humidity Pressure Visibility Wind Dir Wind Speed Gust Speed Precip Events Conditions
12:15 AM 41.0 °F 39.0 °F 26.6 °F 57% 30.02 in 10.0 mi NW 3.5 mph - N/A   Scattered Clouds
12:35 AM 39.2 °F - 28.4 °F 65% 30.03 in 10.0 mi Calm Calm - N/A   Mostly Cloudy
12:55 AM 37.4 °F - 32.0 °F 81% 30.03 in 10.0 mi Calm Calm - N/A   Overcast
1:15 AM 35.6 °F - 32.0 °F 87% 30.02 in 10.0 mi Calm Calm - 0.01 in   Overcast
1:35 AM 37.4 °F - 33.8 °F 87% 30.01 in 10.0 mi Calm Calm - 0.02 in   Overcast
1:55 AM 37.4 °F - 33.8 °F 87% 30.01 in 10.0 mi Calm Calm - 0.02 in   Scattered Clouds
2:15 AM 37.4 °F - 33.8 °F 87% 30.01 in 10.0 mi Calm Calm - N/A   Scattered Clouds
2:35 AM 37.4 °F - 33.8 °F 87% 30.00 in 10.0 mi Calm Calm - 0.01 in   Scattered Clouds
2:55 AM 37.4 °F - 33.8 °F 87% 30.00 in 8.0 mi Calm Calm - 0.01 in   Clear
3:15 AM 37.4 °F - 33.8 °F 87% 30.00 in 10.0 mi Calm Calm - 0.01 in   Mostly Cloudy
3:35 AM 37.4 °F - 32.0 °F 81% 30.00 in 10.0 mi Calm Calm - 0.01 in   Mostly Cloudy
3:55 AM 37.4 °F 34.9 °F 33.8 °F 87% 29.98 in 10.0 mi NNE 3.5 mph - 0.01 in   Clear
4:15 AM 37.4 °F 33.8 °F 33.8 °F 87% 29.98 in 10.0 mi NNE 4.6 mph - N/A   Scattered Clouds
4:35 AM 37.4 °F - 33.8 °F 87% 29.98 in 10.0 mi Calm Calm - N/A   Partly Cloudy
4:55 AM 37.4 °F - 33.8 °F 87% 29.99 in 10.0 mi Calm Calm - N/A   Scattered Clouds
5:15 AM 37.4 °F 33.8 °F 33.8 °F 87% 29.99 in 10.0 mi NNE 4.6 mph - 0.01 in   Clear
5:35 AM 37.4 °F 32.8 °F 33.8 °F 87% 29.99 in 10.0 mi NE 5.8 mph - 0.01 in   Clear
5:55 AM 37.4 °F 32.1 °F 32.0 °F 81% 29.99 in 10.0 mi NE 6.9 mph - 0.01 in   Partly Cloudy
6:15 AM 37.4 °F 33.8 °F 30.2 °F 75% 30.00 in 10.0 mi East 4.6 mph - N/A   Mostly Cloudy
6:35 AM 37.4 °F 32.8 °F 30.2 °F 75% 30.01 in 10.0 mi East 5.8 mph - N/A   Overcast
6:55 AM 37.4 °F 32.1 °F 28.4 °F 70% 30.01 in 10.0 mi East 6.9 mph - N/A   Overcast
7:15 AM 37.4 °F 29.8 °F 26.6 °F 65% 30.01 in 10.0 mi ENE 11.5 mph - N/A   Overcast
7:35 AM 37.4 °F 31.4 °F 28.4 °F 70% 30.01 in 10.0 mi East 8.1 mph - N/A   Overcast
7:55 AM 37.4 °F 30.3 °F 24.8 °F 60% 30.02 in 10.0 mi East 10.4 mph - N/A   Overcast
8:15 AM 39.2 °F 37.0 °F 23.0 °F 52% 30.06 in 10.0 mi ESE 3.5 mph - N/A   Overcast
8:35 AM 39.2 °F - 24.8 °F 56% 30.06 in 10.0 mi Calm Calm - N/A   Overcast
8:55 AM 39.2 °F 35.9 °F 24.8 °F 56% 30.06 in 10.0 mi ESE 4.6 mph - N/A   Overcast
9:15 AM 39.2 °F 35.0 °F 24.8 °F 56% 30.06 in 10.0 mi ESE 5.8 mph - N/A   Mostly Cloudy
9:35 AM 39.2 °F 35.9 °F 26.6 °F 61% 30.07 in 10.0 mi SE 4.6 mph - N/A   Mostly Cloudy
9:55 AM 41.0 °F 36.4 °F 26.6 °F 57% 30.07 in 10.0 mi SE 6.9 mph - N/A   Scattered Clouds
10:15 AM 41.0 °F 36.4 °F 26.6 °F 57% 30.07 in 10.0 mi South 6.9 mph - N/A   Mostly Cloudy
10:35 AM 41.0 °F 38.0 °F 28.4 °F 61% 30.07 in 10.0 mi ESE 4.6 mph - N/A   Mostly Cloudy
10:55 AM 41.0 °F - 30.2 °F 65% 30.07 in 10.0 mi Calm Calm - N/A   Overcast
11:15 AM 42.8 °F 38.6 °F 30.2 °F 61% 30.05 in 10.0 mi East 6.9 mph - N/A   Scattered Clouds
11:55 AM 42.8 °F 38.0 °F 30.2 °F 61% 30.05 in 10.0 mi East 8.1 mph - N/A   Mostly Cloudy
12:15 PM 44.6 °F 41.4 °F 28.4 °F 53% 30.05 in 10.0 mi SE 5.8 mph - N/A   Mostly Cloudy
12:35 PM 44.6 °F 40.7 °F 30.2 °F 57% 30.03 in 10.0 mi East 6.9 mph - N/A   Mostly Cloudy
12:55 PM 44.6 °F 42.2 °F 30.2 °F 57% 30.03 in 10.0 mi East 4.6 mph - N/A   Scattered Clouds
1:15 PM 46.4 °F 44.3 °F 30.2 °F 53% 30.02 in 10.0 mi ESE 4.6 mph - N/A   Mostly Cloudy
1:35 PM 46.4 °F 43.5 °F 32.0 °F 57% 30.00 in 10.0 mi East 5.8 mph - N/A   Partly Cloudy
1:55 PM 46.4 °F 42.4 °F 30.2 °F 53% 30.01 in 10.0 mi ENE 8.1 mph - N/A   Mostly Cloudy
2:15 PM 48.2 °F - 30.2 °F 50% 30.00 in 10.0 mi ENE 8.1 mph - N/A   Overcast
2:35 PM 48.2 °F - 30.2 °F 50% 29.99 in 10.0 mi ENE 6.9 mph - N/A   Overcast
2:55 PM 48.2 °F - 30.2 °F 50% 29.98 in 10.0 mi ENE 8.1 mph - N/A   Overcast
3:15 PM 48.2 °F - 30.2 °F 50% 29.97 in 10.0 mi NE 8.1 mph - N/A   Overcast
3:35 PM 48.2 °F - 30.2 °F 50% 29.97 in 10.0 mi ENE 6.9 mph - N/A   Overcast
3:55 PM 48.2 °F - 30.2 °F 50% 29.97 in 10.0 mi East 6.9 mph - N/A   Overcast
4:15 PM 48.2 °F - 32.0 °F 54% 29.98 in 10.0 mi ENE 4.6 mph - N/A   Overcast
4:35 PM 48.2 °F - 32.0 °F 54% 29.98 in 10.0 mi NE 4.6 mph - N/A   Overcast
4:55 PM 48.2 °F - 32.0 °F 54% 29.98 in 10.0 mi NNE 4.6 mph - N/A   Overcast
5:15 PM 48.2 °F - 30.2 °F 50% 29.97 in 10.0 mi ENE 5.8 mph - N/A   Overcast
5:35 PM 48.2 °F - 30.2 °F 50% 29.97 in 10.0 mi ENE 4.6 mph - N/A   Overcast
5:55 PM 48.2 °F - 32.0 °F 54% 29.97 in 10.0 mi ENE 6.9 mph - N/A   Overcast
6:15 PM 48.2 °F - 32.0 °F 54% 29.97 in 10.0 mi NE 5.8 mph - N/A   Overcast
6:35 PM 48.2 °F - 32.0 °F 54% 29.98 in 10.0 mi ENE 5.8 mph - N/A   Overcast
6:55 PM 48.2 °F - 33.8 °F 58% 29.98 in 10.0 mi NE 3.5 mph - N/A   Overcast
7:15 PM 48.2 °F - 33.8 °F 58% 29.98 in 10.0 mi NE 4.6 mph - N/A   Overcast
7:35 PM 48.2 °F - 33.8 °F 58% 29.98 in 10.0 mi NE 5.8 mph - N/A   Overcast
7:55 PM 48.2 °F - 33.8 °F 58% 29.98 in 10.0 mi ENE 4.6 mph - N/A   Overcast
8:15 PM 48.2 °F - 33.8 °F 58% 29.99 in 10.0 mi East 3.5 mph - N/A   Overcast
8:35 PM 48.2 °F - 33.8 °F 58% 29.99 in 10.0 mi East 5.8 mph - N/A   Overcast
8:55 PM 48.2 °F - 33.8 °F 58% 29.99 in 10.0 mi ENE 4.6 mph - N/A   Overcast
9:15 PM 48.2 °F - 35.6 °F 62% 30.00 in 10.0 mi ENE 3.5 mph - N/A   Overcast
9:35 PM 46.4 °F - 35.6 °F 66% 30.00 in 10.0 mi Calm Calm - N/A   Overcast
9:55 PM 46.4 °F 45.2 °F 37.4 °F 71% 30.00 in 10.0 mi ENE 3.5 mph - N/A   Overcast
10:15 PM 46.4 °F 44.3 °F 37.4 °F 71% 30.00 in 10.0 mi East 4.6 mph - N/A   Overcast
10:35 PM 44.6 °F 42.2 °F 39.2 °F 81% 29.99 in 9.0 mi ENE 4.6 mph - 0.01 in   Overcast
10:55 PM 44.6 °F 43.1 °F 39.2 °F 81% 29.99 in 10.0 mi East 3.5 mph - 0.01 in   Overcast
11:15 PM 44.6 °F 41.4 °F 39.2 °F 81% 29.98 in 10.0 mi ENE 5.8 mph - N/A   Overcast
11:35 PM 44.6 °F 41.4 °F 39.2 °F 81% 29.98 in 5.0 mi ENE 5.8 mph - 0.04 in   Mostly Cloudy
11:55 PM 44.6 °F 41.4 °F 39.2 °F 81% 29.98 in 10.0 mi NE 5.8 mph - 0.05 in   Overcast